When you browse on this site, cookies collect data to enhance your experience and personalize the content and advertising you see.
Visit our Privacy Policy to learn more. By continuing to use the site, you agree to this use of cookies and data.
  • En España
  • Lista de países
  • Para 7 días
  • Temperatura del agua
  • Mapa Satelital
  • El tiempo en el mapa
  • Informadores
  • user-avatar
    Iniciar sesión

    Tiempo cada hora Kota

    Hoy, 21 Julio, Domingo

    Tiempo Temperatura Precipitaciones Viento Presión Humedad
    00:00 +36°C° 0.7 mm 2 mps 728 mmHg 52%
    01:00 +36°C° 0.7 mm 2 mps 728 mmHg 53%
    02:00 +35°C° 0.7 mm 2 mps 728 mmHg 55%
    03:00 +35°C° 1.4 mm 2 mps 728 mmHg 56%
    04:00 +33°C° 1.4 mm 1 mps 728 mmHg 57%
    05:00 +31°C° 0 mm 0 mps 728 mmHg 59%
    06:00 +32°C° 0.3 mm 0 mps 728 mmHg 56%
    07:00 +32°C° 0.3 mm 0 mps 728 mmHg 53%
    08:00 +35°C° 0.3 mm 1 mps 729 mmHg 50%
    09:00 +36°C° 0 mm 1 mps 729 mmHg 46%
    10:00 +39°C° 0 mm 1 mps 729 mmHg 42%
    11:00 +40°C° 0 mm 1 mps 729 mmHg 38%
    12:00 +40°C° 0 mm 1 mps 728 mmHg 36%
    13:00 +41°C° 0 mm 2 mps 728 mmHg 35%
    14:00 +41°C° 0 mm 2 mps 727 mmHg 34%
    15:00 +41°C° 0 mm 2 mps 727 mmHg 33%
    16:00 +41°C° 0 mm 2 mps 726 mmHg 33%
    17:00 +41°C° 0 mm 2 mps 726 mmHg 33%
    18:00 +41°C° 0 mm 2 mps 726 mmHg 35%
    19:00 +40°C° 0 mm 2 mps 726 mmHg 37%
    20:00 +39°C° 0 mm 2 mps 727 mmHg 39%
    21:00 +39°C° 0 mm 2 mps 727 mmHg 40%
    22:00 +38°C° 0 mm 2 mps 727 mmHg 41%
    23:00 +38°C° 0 mm 2 mps 727 mmHg 42%

    Mañana, 22 Julio, Lunes

    Tiempo Temperatura Precipitaciones Viento Presión Humedad
    00:00 +38°C° 0 mm 2 mps 727 mmHg 44%
    01:00 +37°C° 0 mm 2 mps 727 mmHg 45%
    02:00 +37°C° 0 mm 2 mps 727 mmHg 47%
    03:00 +36°C° 0 mm 3 mps 726 mmHg 50%
    04:00 +36°C° 0 mm 3 mps 726 mmHg 52%
    05:00 +35°C° 0 mm 3 mps 726 mmHg 55%
    06:00 +36°C° 0 mm 3 mps 727 mmHg 53%
    07:00 +37°C° 0 mm 3 mps 727 mmHg 50%
    08:00 +38°C° 0 mm 2 mps 728 mmHg 48%
    09:00 +39°C° 0 mm 2 mps 728 mmHg 43%
    10:00 +40°C° 0 mm 2 mps 728 mmHg 39%
    11:00 +41°C° 0 mm 1 mps 728 mmHg 35%
    12:00 +41°C° 0 mm 1 mps 727 mmHg 34%
    13:00 +42°C° 0 mm 1 mps 727 mmHg 33%
    14:00 +39°C° 0 mm 0 mps 726 mmHg 32%
    15:00 +42°C° 0 mm 1 mps 726 mmHg 33%
    16:00 +42°C° 0 mm 1 mps 725 mmHg 33%
    17:00 +41°C° 0 mm 2 mps 725 mmHg 34%
    18:00 +41°C° 0.1 mm 1 mps 725 mmHg 35%
    19:00 +40°C° 0.1 mm 1 mps 726 mmHg 37%
    20:00 +40°C° 0.1 mm 1 mps 726 mmHg 39%
    21:00 +39°C° 0 mm 2 mps 726 mmHg 40%
    22:00 +39°C° 0 mm 2 mps 726 mmHg 42%
    23:00 +38°C° 0 mm 3 mps 726 mmHg 44%

    Pasado mañana, 23 Julio, Martes

    Tiempo Temperatura Precipitaciones Viento Presión Humedad
    00:00 +37°C° 0 mm 3 mps 726 mmHg 47%
    01:00 +37°C° 0 mm 3 mps 726 mmHg 49%
    02:00 +36°C° 0 mm 4 mps 726 mmHg 52%
    03:00 +36°C° 0 mm 4 mps 726 mmHg 55%
    04:00 +35°C° 0 mm 4 mps 726 mmHg 59%
    05:00 +34°C° 0 mm 4 mps 726 mmHg 63%
    06:00 +34°C° 0.2 mm 4 mps 727 mmHg 61%
    07:00 +35°C° 0.2 mm 4 mps 727 mmHg 60%
    08:00 +35°C° 0.2 mm 4 mps 728 mmHg 58%
    09:00 +37°C° 0 mm 4 mps 727 mmHg 53%
    10:00 +38°C° 0 mm 3 mps 727 mmHg 48%
    11:00 +40°C° 0 mm 3 mps 727 mmHg 43%
    12:00 +41°C° 0 mm 2 mps 727 mmHg 39%
    13:00 +42°C° 0 mm 2 mps 726 mmHg 35%
    14:00 +43°C° 0 mm 1 mps 725 mmHg 32%
    15:00 +43°C° 0 mm 1 mps 725 mmHg 32%
    16:00 +43°C° 0 mm 1 mps 725 mmHg 31%
    17:00 +43°C° 0 mm 1 mps 725 mmHg 31%
    18:00 +42°C° 0 mm 2 mps 725 mmHg 34%
    19:00 +41°C° 0 mm 2 mps 725 mmHg 36%
    20:00 +40°C° 0 mm 2 mps 726 mmHg 39%
    21:00 +39°C° 0 mm 3 mps 726 mmHg 41%
    22:00 +39°C° 0 mm 3 mps 726 mmHg 43%
    23:00 +38°C° 0 mm 3 mps 726 mmHg 45%

    24 Julio, Miércoles

    Tiempo Temperatura Precipitaciones Viento Presión Humedad
    00:00 +38°C° 0 mm 3 mps 726 mmHg 47%
    01:00 +37°C° 0 mm 3 mps 725 mmHg 49%
    02:00 +37°C° 0 mm 4 mps 725 mmHg 51%
    03:00 +36°C° 0 mm 4 mps 725 mmHg 54%
    04:00 +36°C° 0 mm 4 mps 725 mmHg 56%
    05:00 +35°C° 0 mm 4 mps 725 mmHg 59%
    06:00 +35°C° 0.2 mm 3 mps 726 mmHg 58%
    07:00 +35°C° 0.2 mm 3 mps 726 mmHg 58%
    08:00 +35°C° 0.2 mm 2 mps 726 mmHg 57%
    09:00 +37°C° 0 mm 2 mps 726 mmHg 52%
    10:00 +38°C° 0 mm 3 mps 726 mmHg 47%
    11:00 +40°C° 0 mm 3 mps 726 mmHg 42%
    12:00 +42°C° 0 mm 3 mps 726 mmHg 39%
    13:00 +41°C° 0 mm 2 mps 725 mmHg 36%
    14:00 +42°C° 0 mm 2 mps 725 mmHg 33%
    15:00 +40°C° 0.6 mm 3 mps 724 mmHg 41%
    16:00 +38°C° 0.6 mm 4 mps 724 mmHg 48%
    17:00 +36°C° 0.6 mm 6 mps 724 mmHg 55%
    18:00 +34°C° 2.3 mm 6 mps 725 mmHg 64%
    19:00 +33°C° 2.3 mm 7 mps 726 mmHg 72%
    20:00 +31°C° 2.3 mm 8 mps 727 mmHg 80%
    21:00 +30°C° 2.4 mm 7 mps 727 mmHg 79%
    22:00 +30°C° 2.4 mm 7 mps 728 mmHg 79%
    23:00 +29°C° 2.4 mm 7 mps 728 mmHg 79%

    25 Julio, Jueves

    Tiempo Temperatura Precipitaciones Viento Presión Humedad
    00:00 +29°C° 0.6 mm 7 mps 728 mmHg 78%
    01:00 +29°C° 0.6 mm 6 mps 727 mmHg 76%
    02:00 +29°C° 0.6 mm 6 mps 727 mmHg 75%
    03:00 +29°C° 0.2 mm 5 mps 727 mmHg 75%
    04:00 +30°C° 0.2 mm 4 mps 727 mmHg 76%
    05:00 +30°C° 0.2 mm 3 mps 727 mmHg 77%
    06:00 +31°C° 0 mm 3 mps 727 mmHg 74%
    07:00 +31°C° 0 mm 3 mps 727 mmHg 71%
    08:00 +33°C° 0 mm 3 mps 728 mmHg 68%
    09:00 +34°C° 0.8 mm 3 mps 728 mmHg 63%
    10:00 +36°C° 0.8 mm 3 mps 728 mmHg 59%
    11:00 +37°C° 0.8 mm 4 mps 728 mmHg 54%
    12:00 +36°C° 3.3 mm 3 mps 728 mmHg 56%
    13:00 +36°C° 3.3 mm 3 mps 727 mmHg 57%
    14:00 +36°C° 3.3 mm 2 mps 727 mmHg 59%
    15:00 +35°C° 2.3 mm 3 mps 727 mmHg 63%
    16:00 +34°C° 2.3 mm 3 mps 726 mmHg 66%
    17:00 +33°C° 2.3 mm 4 mps 726 mmHg 70%
    18:00 +33°C° 1 mm 4 mps 727 mmHg 73%
    19:00 +32°C° 1 mm 4 mps 727 mmHg 77%
    20:00 +30°C° 1 mm 4 mps 727 mmHg 80%
    21:00 +30°C° 1 mm 3 mps 727 mmHg 80%
    22:00 +30°C° 1 mm 3 mps 727 mmHg 81%
    23:00 +30°C° 1 mm 2 mps 727 mmHg 81%

    26 Julio, Viernes

    Tiempo Temperatura Precipitaciones Viento Presión Humedad
    00:00 +30°C° 0.2 mm 2 mps 727 mmHg 82%
    01:00 +30°C° 0.2 mm 2 mps 727 mmHg 82%
    02:00 +29°C° 0.2 mm 2 mps 726 mmHg 82%
    03:00 +29°C° 0.1 mm 2 mps 727 mmHg 82%
    04:00 +29°C° 0.1 mm 2 mps 727 mmHg 82%
    05:00 +29°C° 0.1 mm 2 mps 727 mmHg 81%
    06:00 +30°C° 0 mm 3 mps 727 mmHg 79%
    07:00 +30°C° 0 mm 3 mps 727 mmHg 76%
    08:00 +32°C° 0 mm 4 mps 728 mmHg 74%
    09:00 +32°C° 1.1 mm 4 mps 728 mmHg 73%
    10:00 +32°C° 1.1 mm 4 mps 728 mmHg 72%
    11:00 +33°C° 1.1 mm 5 mps 728 mmHg 72%
    12:00 +32°C° 1.8 mm 4 mps 727 mmHg 74%
    13:00 +31°C° 1.8 mm 3 mps 727 mmHg 75%
    14:00 +30°C° 1.8 mm 2 mps 727 mmHg 77%
    15:00 +30°C° 2.4 mm 2 mps 726 mmHg 81%
    16:00 +29°C° 2.4 mm 2 mps 726 mmHg 84%
    17:00 +28°C° 2.4 mm 2 mps 726 mmHg 88%
    18:00 +28°C° 2.9 mm 3 mps 726 mmHg 89%
    19:00 +28°C° 2.9 mm 3 mps 727 mmHg 90%
    20:00 +27°C° 2.9 mm 4 mps 727 mmHg 91%
    21:00 +27°C° 3.4 mm 4 mps 727 mmHg 90%
    22:00 +27°C° 3.4 mm 4 mps 727 mmHg 89%
    23:00 +27°C° 3.4 mm 5 mps 727 mmHg 88%
    Mostrar más